| time (UTC) | temp F | wind direction | speed MPH | gust MPH | rain 1hr in | rain 24hr in | rain mn in | humidity % | barometer mb |
| 20260506193030 | 67 | 244 | 20.0 | 34.0 | 0.02 | 0.02 | 0.02 | 56 | 1017.6 |
| 20260506191532 | 67 | 243 | 21.0 | 34.0 | 0.02 | 0.02 | 0.02 | 57 | 1017.7 |
| 20260506190032 | 66 | 253 | 23.0 | 37.0 | 0.02 | 0.02 | 0.02 | 59 | 1017.3 |
| 20260506184647 | 66 | 252 | 25.0 | 40.0 | 0.02 | 0.02 | 0.00 | 59 | 1017.3 |
| 20260506183030 | 66 | 252 | 20.0 | 36.0 | 0.00 | 0.00 | 0.00 | 60 | 1017.6 |
| 20260506180030 | 65 | 250 | 14.0 | 27.0 | 0.00 | 0.00 | 0.00 | 62 | 1018.4 |
| 20260506174606 | 65 | 240 | 12.0 | 34.0 | 0.00 | 0.00 | 0.00 | 62 | 1018.5 |
| 20260506173108 | 64 | 237 | 14.0 | 28.0 | 0.00 | 0.00 | 0.00 | 63 | 1018.2 |
| 20260506171531 | 64 | 256 | 17.0 | 28.0 | 0.00 | 0.00 | 0.00 | 64 | 1017.9 |
| 20260506170028 | 63 | 257 | 18.0 | 33.0 | 0.00 | 0.00 | 0.00 | 66 | 1017.7 |
| 20260506164530 | 63 | 253 | 15.0 | 24.0 | 0.00 | 0.00 | 0.00 | 67 | 1017.8 |
| 20260506163031 | 63 | 242 | 17.0 | 28.0 | 0.00 | 0.00 | 0.00 | 67 | 1018.2 |
| 20260506161531 | 62 | 238 | 17.0 | 27.0 | 0.00 | 0.00 | 0.00 | 68 | 1018.6 |
| 20260506160029 | 62 | 236 | 16.0 | 26.0 | 0.00 | 0.00 | 0.00 | 69 | 1018.5 |
| 20260506154531 | 62 | 235 | 15.0 | 26.0 | 0.00 | 0.00 | 0.00 | 69 | 1018.5 |
| 20260506153029 | 62 | 247 | 16.0 | 28.0 | 0.00 | 0.00 | 0.00 | 69 | 1018.3 |
| 20260506151531 | 61 | 245 | 14.0 | 24.0 | 0.00 | 0.00 | 0.00 | 69 | 1018.2 |
| 20260506144531 | 60 | 248 | 15.0 | 25.0 | 0.00 | 0.00 | 0.00 | 70 | 1018.0 |
| 20260506143029 | 60 | 248 | 15.0 | 27.0 | 0.00 | 0.00 | 0.00 | 70 | 1017.9 |
| 20260506141530 | 60 | 241 | 13.0 | 27.0 | 0.00 | 0.00 | 0.00 | 70 | 1017.9 |
| 20260506140032 | 59 | 236 | 11.0 | 21.0 | 0.00 | 0.00 | 0.00 | 71 | 1017.9 |
| 20260506134533 | 59 | 240 | 13.0 | 29.0 | 0.00 | 0.00 | 0.00 | 71 | 1017.7 |
| 20260506131532 | 59 | 236 | 15.0 | 25.0 | 0.00 | 0.00 | 0.00 | 72 | 1017.6 |
| 20260506130107 | 59 | 237 | 16.0 | 30.0 | 0.00 | 0.00 | 0.00 | 72 | 1017.4 |
| 20260506124532 | 59 | 239 | 17.0 | 30.0 | 0.00 | 0.00 | 0.00 | 72 | 1017.3 |
| 20260506121604 | 59 | 234 | 16.0 | 31.0 | 0.00 | 0.00 | 0.00 | 72 | 1017.0 |
| 20260506120030 | 59 | 238 | 19.0 | 35.0 | 0.00 | 0.00 | 0.00 | 72 | 1017.0 |
| 20260506114529 | 59 | 232 | 17.0 | 34.0 | 0.00 | 0.00 | 0.00 | 72 | 1016.9 |
| 20260506113029 | 59 | 235 | 14.0 | 29.0 | 0.00 | 0.00 | 0.00 | 72 | 1016.8 |
| 20260506111532 | 59 | 235 | 12.0 | 25.0 | 0.00 | 0.00 | 0.00 | 72 | 1016.7 |
| 20260506110029 | 59 | 237 | 14.0 | 26.0 | 0.00 | 0.00 | 0.00 | 72 | 1016.5 |
| 20260506104635 | 0 | 0 | 0.0 | 0.0 | 0.00 | 0.00 | 0.00 | 100 | |
| 20260506101532 | 59 | 234 | 10.0 | 18.0 | 0.00 | 0.00 | 0.00 | 74 | 1016.2 |
| 20260506100048 | 59 | 232 | 12.0 | 21.0 | 0.00 | 0.00 | 0.00 | 74 | 1016.1 |
| 20260506094645 | 59 | 239 | 11.0 | 22.0 | 0.00 | 0.00 | 0.00 | 74 | 1016.0 |
| 20260506091529 | 59 | 242 | 14.0 | 24.0 | 0.00 | 0.00 | 0.00 | 74 | 1015.8 |
| 20260506090030 | 59 | 240 | 15.0 | 28.0 | 0.00 | 0.00 | 0.00 | 74 | 1015.6 |
| 20260506084607 | 59 | 235 | 13.0 | 23.0 | 0.00 | 0.00 | 0.00 | 75 | 1015.7 |
| 20260506083030 | 59 | 241 | 12.0 | 25.0 | 0.00 | 0.00 | 0.00 | 75 | 1015.5 |
| 20260506081528 | 59 | 242 | 13.0 | 27.0 | 0.00 | 0.00 | 0.00 | 75 | 1015.5 |
| 20260506073033 | 59 | 241 | 9.0 | 24.0 | 0.00 | 0.00 | 0.00 | 74 | 1015.4 |
| 20260506071528 | 59 | 242 | 10.0 | 20.0 | 0.00 | 0.00 | 0.00 | 74 | 1015.3 |
| 20260506044530 | 59 | 273 | 10.0 | 15.0 | 0.00 | 0.00 | 0.00 | 75 | 1014.2 |
| 20260506034529 | 60 | 276 | 7.0 | 15.0 | 0.00 | 0.00 | 0.00 | 71 | 1013.4 |
| 20260506033106 | 61 | 267 | 7.0 | 14.0 | 0.00 | 0.00 | 0.00 | 70 | 1013.2 |
| 20260506031529 | 62 | 270 | 7.0 | 15.0 | 0.00 | 0.00 | 0.00 | 69 | 1013.1 |
| 20260506030033 | 63 | 267 | 7.0 | 14.0 | 0.00 | 0.00 | 0.00 | 67 | 1012.9 |
| 20260506024543 | 64 | 268 | 7.0 | 16.0 | 0.00 | 0.00 | 0.00 | 65 | 1012.7 |
| 20260506021532 | 66 | 262 | 9.0 | 19.0 | 0.00 | 0.00 | 0.00 | 62 | 1012.6 |
| 20260506020030 | 67 | 268 | 8.0 | 14.0 | 0.00 | 0.00 | 0.00 | 60 | 1012.5 |
| 20260506014531 | 68 | 269 | 8.0 | 15.0 | 0.00 | 0.00 | 0.00 | 57 | 1012.5 |
| 20260506013029 | 70 | 254 | 5.0 | 16.0 | 0.00 | 0.00 | 0.00 | 56 | 1012.4 |
| 20260506011606 | 70 | 251 | 7.0 | 18.0 | 0.00 | 0.00 | 0.00 | 55 | 1012.3 |
| 20260506010031 | 70 | 251 | 7.0 | 21.0 | 0.00 | 0.00 | 0.00 | 55 | 1012.3 |
| 20260506003029 | 70 | 262 | 10.0 | 18.0 | 0.00 | 0.00 | 0.00 | 56 | 1012.2 |
| 20260506000032 | 70 | 260 | 11.0 | 20.0 | 0.00 | 0.00 | 0.00 | 57 | 1012.3 |
| 20260505234529 | 70 | 265 | 12.0 | 21.0 | 0.00 | 0.00 | 0.00 | 56 | 1012.3 |
| 20260505233032 | 70 | 262 | 12.0 | 20.0 | 0.00 | 0.00 | 0.00 | 56 | 1012.5 |
| 20260505223029 | 70 | 271 | 11.0 | 21.0 | 0.00 | 0.00 | 0.00 | 56 | 1012.8 |
| 20260505221532 | 70 | 263 | 12.0 | 23.0 | 0.00 | 0.00 | 0.00 | 55 | 1013.0 |
| 20260505220030 | 70 | 261 | 11.0 | 19.0 | 0.00 | 0.00 | 0.00 | 56 | 1013.1 |
| 20260505214533 | 70 | 265 | 10.0 | 17.0 | 0.00 | 0.00 | 0.00 | 56 | 1013.2 |
| 20260505213033 | 70 | 265 | 12.0 | 22.0 | 0.00 | 0.00 | 0.00 | 56 | 1013.3 |
| 20260505211531 | 70 | 261 | 11.0 | 22.0 | 0.00 | 0.00 | 0.00 | 56 | 1013.4 |
| 20260505210031 | 69 | 267 | 10.0 | 19.0 | 0.00 | 0.00 | 0.00 | 56 | 1013.5 |
| 20260505204607 | 70 | 266 | 10.0 | 20.0 | 0.00 | 0.00 | 0.00 | 56 | 1013.6 |
| 20260505203033 | 70 | 266 | 10.0 | 18.0 | 0.00 | 0.00 | 0.00 | 56 | 1013.7 |
| 20260505201529 | 70 | 265 | 9.0 | 17.0 | 0.00 | 0.00 | 0.00 | 55 | 1013.8 |
| 20260505200033 | 70 | 261 | 9.0 | 18.0 | 0.00 | 0.00 | 0.00 | 54 | 1013.9 |
| 20260505194529 | 70 | 246 | 9.0 | 18.0 | 0.00 | 0.00 | 0.00 | 54 | 1014.0 |